DAL3132 KATL-KMSY

Flight info

Callsign DAL3132
Flight time 1h 11m
Altitude 36000
Route POUNC2 GRGIA SJI MNSTR1
Aircraft A321/M-SDE3FGHIRWY/LB1

Departure

Time 2026-05-07 22:15
Airport Hartsfield Jackson Atlanta International Airport (KATL)

Arrival

Time 2026-05-07 23:27
Airport Louis Armstrong New Orleans International Airport (KMSY)
Time Latitude Longitude Altitude Speed Heading
2026-05-07 21:31 33.63757 -84.43968 1036 ft 0 kts 79°
2026-05-07 22:00 33.63753 -84.43994 1036 ft 4 kts 79°
2026-05-07 22:00 33.63747 -84.44026 1036 ft 4 kts 79°
2026-05-07 22:01 33.63743 -84.44050 1036 ft 0 kts 79°
2026-05-07 22:04 33.63745 -84.44046 1036 ft 1 kts 69°
2026-05-07 22:04 33.63763 -84.44037 1033 ft 5 kts
2026-05-07 22:04 33.63813 -84.44047 1036 ft 10 kts 351°
2026-05-07 22:04 33.63892 -84.44051 1035 ft 12 kts 359°
2026-05-07 22:05 33.63971 -84.44052 1035 ft 11 kts
2026-05-07 22:05 33.64046 -84.44051 1035 ft 10 kts
2026-05-07 22:05 33.64116 -84.44051 1035 ft 10 kts 360°
2026-05-07 22:05 33.64188 -84.44051 1035 ft 11 kts
2026-05-07 22:06 33.64267 -84.44051 1035 ft 12 kts 360°
2026-05-07 22:06 33.64352 -84.44051 1035 ft 13 kts
2026-05-07 22:06 33.64423 -84.43999 1035 ft 13 kts 65°
2026-05-07 22:06 33.64439 -84.43892 1035 ft 13 kts 82°
2026-05-07 22:07 33.64452 -84.43785 1035 ft 13 kts 82°
2026-05-07 22:07 33.64459 -84.43676 1036 ft 13 kts 88°
2026-05-07 22:07 33.64460 -84.43547 1036 ft 16 kts 90°
2026-05-07 22:07 33.64460 -84.43417 1036 ft 15 kts 90°
2026-05-07 22:08 33.64460 -84.43298 1036 ft 15 kts 90°
2026-05-07 22:08 33.64460 -84.43173 1036 ft 15 kts 90°
2026-05-07 22:08 33.64460 -84.43049 1036 ft 15 kts 90°
2026-05-07 22:08 33.64460 -84.42925 1035 ft 16 kts 90°
2026-05-07 22:09 33.64461 -84.42793 1035 ft 15 kts 87°
2026-05-07 22:09 33.64469 -84.42673 1035 ft 14 kts 88°
2026-05-07 22:09 33.64469 -84.42553 1035 ft 16 kts 90°
2026-05-07 22:09 33.64469 -84.42422 1035 ft 15 kts 90°
2026-05-07 22:10 33.64469 -84.42302 1035 ft 14 kts 89°
2026-05-07 22:10 33.64502 -84.42198 1035 ft 15 kts 60°
2026-05-07 22:10 33.64542 -84.42081 1035 ft 15 kts 85°
2026-05-07 22:10 33.64543 -84.41958 1035 ft 14 kts 90°
2026-05-07 22:11 33.64543 -84.41847 1035 ft 13 kts 90°
2026-05-07 22:11 33.64543 -84.41734 1036 ft 17 kts 90°
2026-05-07 22:11 33.64543 -84.41574 1036 ft 22 kts 90°
2026-05-07 22:11 33.64543 -84.41395 1036 ft 21 kts 90°
2026-05-07 22:12 33.64543 -84.41226 1036 ft 19 kts 90°
2026-05-07 22:12 33.64543 -84.41121 1036 ft 19 kts 90°
2026-05-07 22:12 33.64543 -84.40923 1035 ft 17 kts 90°
2026-05-07 22:12 33.64562 -84.40789 1035 ft 16 kts 68°
2026-05-07 22:13 33.64570 -84.40662 1034 ft 15 kts 90°
2026-05-07 22:13 33.64609 -84.40575 1034 ft 11 kts 17°
2026-05-07 22:13 33.64670 -84.40575 1033 ft 5 kts 345°
2026-05-07 22:13 33.64679 -84.40594 1033 ft 4 kts 283°
2026-05-07 22:14 33.64679 -84.40606 1033 ft 0 kts 271°
2026-05-07 22:14 33.64679 -84.40634 1033 ft 17 kts 270°
2026-05-07 22:15 33.64680 -84.41068 1036 ft 84 kts 270°
2026-05-07 22:15 33.64680 -84.42000 1035 ft 136 kts 270°
2026-05-07 22:15 33.64689 -84.43289 1138 ft 165 kts 270°
2026-05-07 22:15 33.64695 -84.44617 1862 ft 157 kts 273°
2026-05-07 22:16 33.64734 -84.45921 2499 ft 156 kts 280°
2026-05-07 22:16 33.64972 -84.47208 2953 ft 164 kts 283°
2026-05-07 22:16 33.65243 -84.48633 3125 ft 184 kts 283°
2026-05-07 22:16 33.65535 -84.50198 3276 ft 201 kts 283°
2026-05-07 22:17 33.65854 -84.51941 3373 ft 229 kts 283°
2026-05-07 22:17 33.66212 -84.53896 3827 ft 244 kts 282°
2026-05-07 22:17 33.66579 -84.55913 4589 ft 251 kts 282°
2026-05-07 22:17 33.66954 -84.57984 5279 ft 257 kts 281°
2026-05-07 22:18 33.67333 -84.60049 6295 ft 251 kts 281°
2026-05-07 22:18 33.68029 -84.64154 7946 ft 251 kts 280°
2026-05-07 22:18 33.68366 -84.66214 8758 ft 252 kts 280°
2026-05-07 22:19 33.68706 -84.68284 9501 ft 254 kts 280°
2026-05-07 22:19 33.69047 -84.70343 10178 ft 257 kts 280°
2026-05-07 22:19 33.69379 -84.72569 10398 ft 278 kts 275°
2026-05-07 22:19 33.69345 -84.74946 10515 ft 301 kts 263°
2026-05-07 22:20 33.68764 -84.77434 10815 ft 318 kts 250°
2026-05-07 22:20 33.67630 -84.79752 11428 ft 327 kts 239°
2026-05-07 22:20 33.66273 -84.81946 12171 ft 327 kts 239°
2026-05-07 22:20 33.64914 -84.84138 12934 ft 327 kts 240°
2026-05-07 22:21 33.63557 -84.86329 13670 ft 327 kts 241°
2026-05-07 22:21 33.62199 -84.88518 14356 ft 327 kts 241°
2026-05-07 22:21 33.60840 -84.90709 15009 ft 327 kts 241°
2026-05-07 22:21 33.59484 -84.92901 15640 ft 328 kts 240°
2026-05-07 22:22 33.58125 -84.95096 16269 ft 328 kts 240°
2026-05-07 22:22 33.56762 -84.97290 16888 ft 328 kts 240°
2026-05-07 22:22 33.55396 -84.99484 17483 ft 328 kts 240°
2026-05-07 22:22 33.54028 -85.01679 18058 ft 329 kts 239°
2026-05-07 22:23 33.52656 -85.03883 18581 ft 330 kts 239°
2026-05-07 22:23 33.51278 -85.06095 19014 ft 332 kts 239°
2026-05-07 22:23 33.49895 -85.08321 19442 ft 334 kts 239°
2026-05-07 22:23 33.48503 -85.10562 19875 ft 336 kts 239°
2026-05-07 22:24 33.47098 -85.12819 20305 ft 339 kts 239°
2026-05-07 22:24 33.45683 -85.15088 20729 ft 341 kts 239°
2026-05-07 22:24 33.44261 -85.17367 21138 ft 343 kts 239°
2026-05-07 22:24 33.42841 -85.19675 21544 ft 343 kts 242°
2026-05-07 22:25 33.41733 -85.22184 21932 ft 340 kts 252°
2026-05-07 22:25 33.41016 -85.24877 22320 ft 341 kts 256°
2026-05-07 22:25 33.40346 -85.27608 22715 ft 343 kts 256°
2026-05-07 22:25 33.39669 -85.30357 23121 ft 345 kts 256°
2026-05-07 22:26 33.38995 -85.33083 23491 ft 347 kts 256°
2026-05-07 22:26 33.38299 -85.35894 23839 ft 349 kts 256°
2026-05-07 22:26 33.37610 -85.38680 24170 ft 350 kts 256°
2026-05-07 22:26 33.36926 -85.41447 24496 ft 352 kts 256°
2026-05-07 22:27 33.36232 -85.44259 24835 ft 354 kts 256°
2026-05-07 22:27 33.35532 -85.47082 25171 ft 355 kts 256°
2026-05-07 22:27 33.34827 -85.49919 25508 ft 357 kts 256°
2026-05-07 22:27 33.34120 -85.52771 25845 ft 358 kts 256°
2026-05-07 22:28 33.33407 -85.55636 26172 ft 360 kts 256°
2026-05-07 22:28 33.32688 -85.58508 26496 ft 362 kts 256°
2026-05-07 22:28 33.31963 -85.61396 26809 ft 363 kts 256°
2026-05-07 22:28 33.31234 -85.64298 27112 ft 365 kts 256°
2026-05-07 22:29 33.30502 -85.67209 27409 ft 366 kts 256°
2026-05-07 22:29 33.29769 -85.70129 27703 ft 367 kts 256°
2026-05-07 22:29 33.29035 -85.73061 28012 ft 369 kts 256°
2026-05-07 22:29 33.28297 -85.76003 28294 ft 371 kts 256°
2026-05-07 22:30 33.27557 -85.78960 28568 ft 372 kts 256°
2026-05-07 22:30 33.26822 -85.81892 28859 ft 374 kts 256°
2026-05-07 22:30 33.26073 -85.84875 29134 ft 375 kts 256°
2026-05-07 22:30 33.25319 -85.87863 29506 ft 374 kts 256°
2026-05-07 22:31 33.24567 -85.90834 29913 ft 373 kts 256°
2026-05-07 22:31 33.23818 -85.93787 30257 ft 371 kts 256°
2026-05-07 22:31 33.23071 -85.96737 30594 ft 370 kts 256°
2026-05-07 22:31 33.22329 -85.99670 30930 ft 368 kts 256°
2026-05-07 22:32 33.21589 -86.02593 31259 ft 367 kts 255°
2026-05-07 22:32 33.20849 -86.05506 31600 ft 365 kts 255°
2026-05-07 22:32 33.20109 -86.08412 31895 ft 365 kts 255°
2026-05-07 22:32 33.19375 -86.11301 32259 ft 363 kts 255°
2026-05-07 22:33 33.18644 -86.14175 32631 ft 361 kts 255°
2026-05-07 22:33 33.17926 -86.16999 32986 ft 359 kts 255°
2026-05-07 22:33 33.17202 -86.19845 33336 ft 358 kts 255°
2026-05-07 22:33 33.16479 -86.22680 33670 ft 356 kts 255°
2026-05-07 22:34 33.15756 -86.25499 34055 ft 355 kts 254°
2026-05-07 22:34 33.15035 -86.28312 34344 ft 353 kts 255°
2026-05-07 22:34 33.14318 -86.31116 34628 ft 352 kts 255°
2026-05-07 22:34 33.13604 -86.33906 34897 ft 351 kts 255°
2026-05-07 22:35 33.12891 -86.36688 35162 ft 350 kts 255°
2026-05-07 22:35 33.12177 -86.39462 35441 ft 349 kts 255°
2026-05-07 22:35 33.11463 -86.42228 35703 ft 348 kts 255°
2026-05-07 22:35 33.10753 -86.44984 35912 ft 348 kts 255°
2026-05-07 22:36 33.10043 -86.47743 36003 ft 348 kts 255°
2026-05-07 22:36 33.08603 -86.53223 36021 ft 346 kts 251°
2026-05-07 22:37 33.05884 -86.58027 36014 ft 363 kts 230°
2026-05-07 22:37 33.03820 -86.59844 35995 ft 374 kts 223°
2026-05-07 22:37 33.01642 -86.61542 35994 ft 374 kts 223°
2026-05-07 22:38 32.97293 -86.64947 35990 ft 374 kts 224°
2026-05-07 22:38 32.92947 -86.68353 35993 ft 374 kts 224°
2026-05-07 22:39 32.88594 -86.71755 35981 ft 374 kts 224°
2026-05-07 22:39 32.84239 -86.75160 35947 ft 374 kts 224°
2026-05-07 22:40 32.79883 -86.78562 35962 ft 374 kts 224°
2026-05-07 22:40 32.75556 -86.81943 35946 ft 374 kts 224°
2026-05-07 22:41 32.71197 -86.85340 35953 ft 375 kts 224°
2026-05-07 22:41 32.66831 -86.88731 35949 ft 375 kts 224°
2026-05-07 22:42 32.62465 -86.92125 35950 ft 375 kts 224°
2026-05-07 22:42 32.58091 -86.95518 35899 ft 375 kts 223°
2026-05-07 22:43 32.53725 -86.98896 35909 ft 375 kts 223°
2026-05-07 22:43 32.49353 -87.02289 35919 ft 376 kts 223°
2026-05-07 22:44 32.44969 -87.05680 35913 ft 376 kts 223°
2026-05-07 22:44 32.40585 -87.09062 35924 ft 377 kts 223°
2026-05-07 22:45 32.36214 -87.12432 35927 ft 377 kts 223°
2026-05-07 22:45 32.31818 -87.15821 36024 ft 377 kts 223°
2026-05-07 22:46 32.27420 -87.19206 35891 ft 378 kts 223°
2026-05-07 22:46 32.23012 -87.22609 35902 ft 379 kts 223°
2026-05-07 22:47 32.18588 -87.26007 35927 ft 380 kts 223°
2026-05-07 22:47 32.14156 -87.29394 35936 ft 380 kts 223°
2026-05-07 22:48 32.09724 -87.32784 35941 ft 380 kts 223°
2026-05-07 22:48 32.05287 -87.36160 35948 ft 380 kts 222°
2026-05-07 22:49 32.00836 -87.39519 35926 ft 380 kts 222°
2026-05-07 22:49 31.96382 -87.42911 35966 ft 381 kts 223°
2026-05-07 22:50 31.91947 -87.46337 35990 ft 381 kts 223°
2026-05-07 22:50 31.87541 -87.49725 35996 ft 381 kts 223°
2026-05-07 22:51 31.83091 -87.53118 36001 ft 381 kts 222°
2026-05-07 22:51 31.78632 -87.56498 36022 ft 381 kts 222°
2026-05-07 22:52 31.74178 -87.59883 35997 ft 382 kts 222°
2026-05-07 22:52 31.69714 -87.63262 36002 ft 382 kts 222°
2026-05-07 22:53 31.65241 -87.66639 36011 ft 382 kts 222°
2026-05-07 22:53 31.60772 -87.70016 36014 ft 382 kts 222°
2026-05-07 22:54 31.56300 -87.73397 36024 ft 382 kts 222°
2026-05-07 22:54 31.51872 -87.76739 36022 ft 381 kts 222°
2026-05-07 22:55 31.47414 -87.80106 35996 ft 381 kts 221°
2026-05-07 22:55 31.42954 -87.83466 36000 ft 381 kts 221°
2026-05-07 22:56 31.38499 -87.86821 36012 ft 381 kts 221°
2026-05-07 22:56 31.34031 -87.90170 36008 ft 381 kts 221°
2026-05-07 22:57 31.29570 -87.93518 36009 ft 381 kts 221°
2026-05-07 22:57 31.25113 -87.96863 36007 ft 381 kts 221°
2026-05-07 22:58 31.20657 -88.00202 35959 ft 381 kts 221°
2026-05-07 22:58 31.16184 -88.03544 35969 ft 382 kts 221°
2026-05-07 22:59 31.11697 -88.06898 35974 ft 384 kts 221°
2026-05-07 22:59 31.07188 -88.10258 35989 ft 385 kts 220°
2026-05-07 23:00 31.03439 -88.13046 35996 ft 385 kts 220°
2026-05-07 23:00 30.98197 -88.16949 36007 ft 385 kts 220°
2026-05-07 23:01 30.93685 -88.20302 35980 ft 385 kts 220°
2026-05-07 23:01 30.89895 -88.23118 35986 ft 387 kts 220°
2026-05-07 23:02 30.85368 -88.26474 36007 ft 389 kts 219°
2026-05-07 23:02 30.80794 -88.29864 35971 ft 390 kts 219°
2026-05-07 23:02 30.78502 -88.31566 35723 ft 391 kts 219°
2026-05-07 23:03 30.76222 -88.33289 35476 ft 389 kts 222°
2026-05-07 23:03 30.74140 -88.35264 35259 ft 384 kts 229°
2026-05-07 23:03 30.72334 -88.37528 35018 ft 380 kts 236°
2026-05-07 23:03 30.70827 -88.40040 34775 ft 378 kts 242°
2026-05-07 23:04 30.69598 -88.42743 34546 ft 378 kts 245°
2026-05-07 23:04 30.68402 -88.45479 34315 ft 380 kts 245°
2026-05-07 23:04 30.67197 -88.48210 34088 ft 381 kts 244°
2026-05-07 23:04 30.65983 -88.50950 33827 ft 381 kts 244°
2026-05-07 23:05 30.64765 -88.53688 33569 ft 382 kts 244°
2026-05-07 23:05 30.63557 -88.56399 33322 ft 383 kts 244°
2026-05-07 23:05 30.62319 -88.59179 33058 ft 383 kts 244°
2026-05-07 23:05 30.61096 -88.61933 32803 ft 384 kts 245°
2026-05-07 23:06 30.59889 -88.64653 32192 ft 385 kts 245°
2026-05-07 23:06 30.58666 -88.67399 31219 ft 380 kts 245°
2026-05-07 23:06 30.57466 -88.70101 30346 ft 373 kts 245°
2026-05-07 23:06 30.56285 -88.72762 29390 ft 367 kts 246°
2026-05-07 23:07 30.55130 -88.75356 28817 ft 360 kts 246°
2026-05-07 23:07 30.53984 -88.77927 28231 ft 357 kts 246°
2026-05-07 23:07 30.52850 -88.80476 27653 ft 355 kts 246°
2026-05-07 23:07 30.51717 -88.83020 27071 ft 354 kts 246°
2026-05-07 23:08 30.50590 -88.85547 26503 ft 352 kts 246°
2026-05-07 23:08 30.49465 -88.88058 25951 ft 350 kts 246°
2026-05-07 23:08 30.48346 -88.90560 25390 ft 348 kts 246°
2026-05-07 23:08 30.47234 -88.93050 24838 ft 347 kts 246°
2026-05-07 23:09 30.46122 -88.95528 24291 ft 346 kts 246°
2026-05-07 23:09 30.45012 -88.97997 23744 ft 345 kts 246°
2026-05-07 23:09 30.43908 -89.00458 23157 ft 343 kts 246°
2026-05-07 23:09 30.42808 -89.02908 22619 ft 340 kts 246°
2026-05-07 23:10 30.41728 -89.05316 22141 ft 335 kts 245°
2026-05-07 23:10 30.40665 -89.07696 21695 ft 331 kts 246°
2026-05-07 23:10 30.39688 -89.10090 21248 ft 326 kts 248°
2026-05-07 23:10 30.38804 -89.12464 20806 ft 325 kts 249°
2026-05-07 23:11 30.37939 -89.14882 20385 ft 324 kts 249°
2026-05-07 23:11 30.37087 -89.17288 19957 ft 322 kts 249°
2026-05-07 23:11 30.36234 -89.19679 19539 ft 320 kts 248°
2026-05-07 23:11 30.35378 -89.22048 19116 ft 318 kts 248°
2026-05-07 23:12 30.34517 -89.24401 18706 ft 316 kts 248°
2026-05-07 23:12 30.33656 -89.26738 18266 ft 315 kts 247°
2026-05-07 23:12 30.32795 -89.29059 17792 ft 313 kts 247°
2026-05-07 23:12 30.31936 -89.31371 17358 ft 312 kts 247°
2026-05-07 23:13 30.31078 -89.33681 16923 ft 312 kts 248°
2026-05-07 23:13 30.30223 -89.35988 16488 ft 312 kts 248°
2026-05-07 23:13 30.29368 -89.38290 16048 ft 312 kts 248°
2026-05-07 23:13 30.28511 -89.40594 15605 ft 311 kts 248°
2026-05-07 23:14 30.27655 -89.42895 15157 ft 311 kts 248°
2026-05-07 23:14 30.26799 -89.45197 14709 ft 311 kts 248°
2026-05-07 23:14 30.25942 -89.47496 14261 ft 311 kts 248°
2026-05-07 23:14 30.25085 -89.49796 13808 ft 312 kts 248°
2026-05-07 23:15 30.24228 -89.52099 13319 ft 311 kts 248°
2026-05-07 23:15 30.23373 -89.54391 12847 ft 310 kts 248°
2026-05-07 23:15 30.22518 -89.56680 12388 ft 309 kts 248°
2026-05-07 23:15 30.21667 -89.58958 11933 ft 308 kts 248°
2026-05-07 23:16 30.20826 -89.61220 11629 ft 302 kts 248°
2026-05-07 23:16 30.20010 -89.63410 11503 ft 290 kts 248°
2026-05-07 23:16 30.19224 -89.65513 11325 ft 281 kts 248°
2026-05-07 23:16 30.18454 -89.67569 11091 ft 277 kts 248°
2026-05-07 23:17 30.17694 -89.69605 10896 ft 274 kts 248°
2026-05-07 23:17 30.16949 -89.71597 10987 ft 276 kts 248°
2026-05-07 23:17 30.16146 -89.73611 10957 ft 277 kts 242°
2026-05-07 23:17 30.14974 -89.75421 10470 ft 285 kts 233°
2026-05-07 23:18 30.13722 -89.77158 9970 ft 280 kts 233°
2026-05-07 23:18 30.12485 -89.78878 9370 ft 276 kts 233°
2026-05-07 23:18 30.11253 -89.80591 8842 ft 279 kts 233°
2026-05-07 23:18 30.10007 -89.82325 8387 ft 280 kts 232°
2026-05-07 23:19 30.08767 -89.84050 7906 ft 279 kts 232°
2026-05-07 23:19 30.07541 -89.85753 7411 ft 272 kts 232°
2026-05-07 23:19 30.06359 -89.87397 7150 ft 258 kts 232°
2026-05-07 23:19 30.05247 -89.88947 6889 ft 244 kts 233°
2026-05-07 23:20 30.04194 -89.90414 6631 ft 231 kts 233°
2026-05-07 23:20 30.03185 -89.91820 6409 ft 226 kts 233°
2026-05-07 23:20 30.02191 -89.93207 6090 ft 223 kts 233°
2026-05-07 23:20 30.01220 -89.94560 5728 ft 221 kts 233°
2026-05-07 23:21 30.00226 -89.95945 5354 ft 221 kts 233°
2026-05-07 23:21 29.99258 -89.97288 4997 ft 220 kts 233°
2026-05-07 23:21 29.98281 -89.98645 4638 ft 219 kts 233°
2026-05-07 23:21 29.97305 -90.00003 4284 ft 220 kts 233°
2026-05-07 23:22 29.96322 -90.01371 3913 ft 223 kts 232°
2026-05-07 23:22 29.95342 -90.02733 3549 ft 216 kts 232°
2026-05-07 23:22 29.94554 -90.04155 3171 ft 207 kts 250°
2026-05-07 23:22 29.94330 -90.05759 2867 ft 201 kts 275°
2026-05-07 23:23 29.94604 -90.07324 2702 ft 196 kts 288°
2026-05-07 23:23 29.94974 -90.08823 2530 ft 193 kts 288°
2026-05-07 23:23 29.95334 -90.10286 2353 ft 185 kts 288°
2026-05-07 23:23 29.95678 -90.11699 2270 ft 182 kts 288°
2026-05-07 23:24 29.96006 -90.13054 2087 ft 170 kts 289°
2026-05-07 23:24 29.96309 -90.14307 1906 ft 156 kts 289°
2026-05-07 23:24 29.96597 -90.15492 1704 ft 151 kts 290°
2026-05-07 23:24 29.96877 -90.16648 1502 ft 148 kts 289°
2026-05-07 23:25 29.97154 -90.17789 1316 ft 147 kts 288°
2026-05-07 23:25 29.97430 -90.18927 1114 ft 147 kts 288°
2026-05-07 23:25 29.97704 -90.20062 939 ft 147 kts 288°
2026-05-07 23:25 29.97976 -90.21193 745 ft 145 kts 289°
2026-05-07 23:26 29.98246 -90.22296 574 ft 145 kts 288°
2026-05-07 23:26 29.98515 -90.23407 365 ft 142 kts 287°
2026-05-07 23:26 29.98781 -90.24520 162 ft 142 kts 287°
2026-05-07 23:26 29.99040 -90.25593 23 ft 139 kts 287°
2026-05-07 23:27 29.99430 -90.27206 7 ft 56 kts 285°
2026-05-07 23:27 29.99511 -90.27540 2 ft 21 kts 285°
2026-05-07 23:27 29.99538 -90.27653 0 ft 8 kts 285°
2026-05-07 23:28 29.99566 -90.27700 0 ft 7 kts 329°
2026-05-07 23:28 29.99614 -90.27699 0 ft 8 kts 14°
2026-05-07 23:28 29.99681 -90.27677 2 ft 14 kts 15°
2026-05-07 23:28 29.99745 -90.27612 4 ft 12 kts 74°
2026-05-07 23:29 29.99733 -90.27523 5 ft 11 kts 105°
2026-05-07 23:29 29.99712 -90.27430 4 ft 15 kts 105°
2026-05-07 23:29 29.99672 -90.27267 5 ft 27 kts 105°
2026-05-07 23:29 29.99622 -90.27053 9 ft 27 kts 105°
2026-05-07 23:30 29.99574 -90.26856 12 ft 25 kts 105°
2026-05-07 23:30 29.99527 -90.26665 10 ft 24 kts 106°
2026-05-07 23:30 29.99482 -90.26481 10 ft 24 kts 106°
2026-05-07 23:30 29.99437 -90.26294 8 ft 24 kts 105°
2026-05-07 23:31 29.99392 -90.26105 5 ft 25 kts 106°
2026-05-07 23:31 29.99351 -90.25936 3 ft 14 kts 104°
2026-05-07 23:31 29.99300 -90.25864 4 ft 13 kts 162°
2026-05-07 23:31 29.99227 -90.25784 4 ft 16 kts 107°
2026-05-07 23:32 29.99203 -90.25657 6 ft 16 kts 99°
2026-05-07 23:32 29.99205 -90.25541 6 ft 13 kts 89°
2026-05-07 23:32 29.99201 -90.25444 8 ft 11 kts 93°
2026-05-07 23:32 29.99202 -90.25360 8 ft 10 kts 80°
2026-05-07 23:33 29.99244 -90.25269 8 ft 15 kts 45°
2026-05-07 23:33 29.99320 -90.25223 10 ft 10 kts
2026-05-07 23:33 29.99403 -90.25231 10 ft 4 kts 351°
2026-05-07 23:33 29.99424 -90.25235 11 ft 5 kts 349°
2026-05-07 23:34 29.99479 -90.25249 10 ft 8 kts 348°
2026-05-07 23:34 29.99504 -90.25290 8 ft 3 kts 266°
2026-05-07 23:34 29.99501 -90.25313 7 ft 2 kts 262°
2026-05-07 23:34 29.99500 -90.25319 7 ft 0 kts 262°